Precipitable_Water
0.43 0.41 0.32 0.35 0.37 0.38 0.37 0.37 0.36 0.41 0.47 0.44 0.45 0.44 0.48 0.53 0.50 0.45 0.42 0.42 0.48 0.52 0.58 0.67 0.73 0.76 0.75 0.78 0.63 0.77 0.76 0.88 1.06 1.21 1.27 1.28 1.33 1.31 1.36 1.47 1.41 1.40 1.31 1.27
0.36 0.30 0.36 0.40 0.40 0.36 0.37 0.35 0.33 0.38 0.45 0.46 0.46 0.42 0.43 0.39 0.36 0.39 0.39 0.43 0.48 0.51 0.55 0.63 0.71 0.74 0.79 0.73 0.59 0.74 0.79 0.91 1.09 1.27 1.30 1.31 1.35 1.39 1.39 1.41 1.43 1.41 1.35 1.33
0.25 0.32 0.37 0.36 0.35 0.36 0.36 0.33 0.33 0.35 0.42 0.47 0.42 0.32 0.34 0.40 0.40 0.38 0.37 0.42 0.47 0.51 0.53 0.60 0.69 0.76 0.79 0.67 0.58 0.72 0.83 0.96 1.14 1.29 1.33 1.35 1.40 1.40 1.38 1.41 1.41 1.46 1.40 1.35
0.28 0.36 0.37 0.32 0.34 0.36 0.33 0.37 0.35 0.34 0.35 0.30 0.38 0.24 0.32 0.35 0.35 0.35 0.39 0.43 0.45 0.51 0.56 0.62 0.73 0.78 0.76 0.62 0.64 0.72 0.90 0.97 1.15 1.15 1.24 1.31 1.32 1.30 1.41 1.41 1.46 1.53 1.46 1.42
0.21 0.31 0.32 0.31 0.32 0.38 0.32 0.37 0.35 0.37 0.34 0.32 0.32 0.28 0.31 0.36 0.32 0.33 0.34 0.40 0.48 0.53 0.59 0.70 0.76 0.79 0.76 0.57 0.63 0.75 0.93 0.96 1.12 1.17 1.21 1.29 1.29 1.34 1.47 1.45 1.40 1.45 1.51 1.48
0.23 0.34 0.35 0.34 0.38 0.39 0.38 0.36 0.33 0.35 0.35 0.25 0.29 0.30 0.28 0.29 0.32 0.32 0.36 0.43 0.56 0.54 0.62 0.73 0.82 0.82 0.73 0.53 0.64 0.76 0.89 0.88 1.08 1.19 1.19 1.25 1.32 1.33 1.36 1.35 1.30 1.32 1.48 1.51
0.24 0.26 0.36 0.39 0.36 0.37 0.33 0.30 0.23 0.24 0.25 0.24 0.34 0.29 0.29 0.29 0.33 0.32 0.37 0.46 0.56 0.62 0.67 0.77 0.80 0.73 0.61 0.52 0.59 0.75 0.84 0.82 0.95 1.10 1.14 1.22 1.31 1.33 1.34 1.38 1.30 1.33 1.34 1.46
0.21 0.21 0.30 0.36 0.34 0.29 0.29 0.27 0.23 0.22 0.25 0.28 0.37 0.27 0.32 0.34 0.35 0.35 0.41 0.54 0.67 0.67 0.72 0.76 0.71 0.65 0.52 0.55 0.57 0.70 0.82 0.78 0.89 0.96 1.08 1.14 1.18 1.32 1.38 1.33 1.37 1.34 1.31 1.42
0.21 0.22 0.30 0.37 0.37 0.33 0.30 0.26 0.32 0.29 0.30 0.28 0.34 0.35 0.37 0.34 0.35 0.46 0.52 0.60 0.64 0.65 0.69 0.69 0.65 0.58 0.50 0.54 0.58 0.67 0.78 0.84 0.85 0.88 1.00 1.05 1.12 1.24 1.37 1.39 1.38 1.34 1.45 1.43
0.27 0.24 0.29 0.32 0.38 0.34 0.30 0.37 0.29 0.30 0.23 0.25 0.30 0.30 0.30 0.33 0.37 0.56 0.56 0.60 0.62 0.63 0.66 0.68 0.56 0.55 0.48 0.54 0.62 0.68 0.75 0.84 0.84 0.82 0.91 0.98 1.02 1.21 1.23 1.24 1.28 1.39 1.36 1.47
0.28 0.29 0.28 0.33 0.33 0.26 0.26 0.27 0.33 0.34 0.31 0.26 0.27 0.29 0.42 0.37 0.40 0.48 0.65 0.63 0.59 0.60 0.67 0.60 0.53 0.57 0.46 0.52 0.61 0.66 0.77 0.71 0.81 0.85 0.85 0.87 0.96 1.12 1.15 1.20 1.24 1.32 1.40 1.35
0.25 0.32 0.29 0.27 0.35 0.36 0.32 0.28 0.32 0.28 0.28 0.31 0.32 0.33 0.43 0.41 0.41 0.53 0.66 0.62 0.61 0.63 0.67 0.61 0.52 0.53 0.44 0.50 0.59 0.63 0.77 0.65 0.61 0.70 0.79 0.87 0.96 1.06 1.10 1.20 1.24 1.35 1.39 1.40
0.27 0.30 0.27 0.32 0.34 0.37 0.31 0.31 0.32 0.36 0.37 0.33 0.29 0.28 0.40 0.44 0.44 0.51 0.62 0.64 0.59 0.64 0.66 0.61 0.51 0.48 0.43 0.51 0.56 0.61 0.73 0.72 0.60 0.61 0.70 0.81 0.88 0.93 1.01 1.13 1.14 1.27 1.36 1.44
0.32 0.31 0.28 0.22 0.27 0.32 0.29 0.29 0.33 0.33 0.31 0.32 0.31 0.35 0.42 0.44 0.45 0.55 0.61 0.67 0.62 0.64 0.63 0.59 0.50 0.46 0.42 0.50 0.53 0.59 0.67 0.69 0.59 0.59 0.57 0.70 0.76 0.82 1.00 1.10 1.09 1.14 1.21 1.32
0.30 0.27 0.31 0.31 0.34 0.34 0.32 0.30 0.28 0.29 0.32 0.32 0.35 0.34 0.39 0.43 0.47 0.50 0.67 0.68 0.63 0.62 0.63 0.59 0.51 0.44 0.41 0.49 0.51 0.57 0.64 0.64 0.53 0.54 0.53 0.59 0.66 0.78 1.06 1.11 1.11 1.02 0.96 1.01
0.34 0.27 0.34 0.29 0.32 0.32 0.33 0.33 0.32 0.28 0.31 0.34 0.38 0.37 0.43 0.46 0.46 0.54 0.65 0.68 0.64 0.65 0.63 0.59 0.53 0.46 0.39 0.46 0.48 0.53 0.59 0.56 0.52 0.55 0.53 0.55 0.54 0.70 0.96 1.05 1.05 0.96 0.89 0.86
0.33 0.30 0.32 0.27 0.29 0.26 0.26 0.29 0.30 0.30 0.30 0.33 0.32 0.38 0.43 0.43 0.44 0.50 0.60 0.65 0.64 0.66 0.62 0.57 0.53 0.51 0.42 0.42 0.50 0.51 0.57 0.54 0.50 0.54 0.55 0.52 0.56 0.58 0.74 0.86 0.84 0.83 0.77 0.82
0.36 0.34 0.35 0.27 0.30 0.24 0.23 0.32 0.33 0.33 0.34 0.36 0.38 0.41 0.43 0.42 0.47 0.50 0.53 0.66 0.65 0.69 0.66 0.62 0.63 0.57 0.50 0.45 0.49 0.55 0.58 0.54 0.49 0.52 0.54 0.49 0.50 0.58 0.60 0.68 0.74 0.76 0.74 0.70
0.43 0.42 0.33 0.29 0.28 0.32 0.28 0.32 0.30 0.29 0.31 0.41 0.40 0.41 0.42 0.45 0.45 0.46 0.50 0.69 0.70 0.72 0.72 0.70 0.71 0.68 0.56 0.50 0.46 0.53 0.54 0.54 0.49 0.50 0.53 0.49 0.44 0.52 0.58 0.60 0.70 0.77 0.81 0.80
0.49 0.47 0.39 0.32 0.30 0.25 0.28 0.34 0.37 0.37 0.28 0.40 0.40 0.40 0.40 0.42 0.34 0.43 0.54 0.61 0.71 0.73 0.78 0.78 0.79 0.73 0.61 0.55 0.50 0.48 0.50 0.50 0.47 0.50 0.53 0.52 0.44 0.46 0.52 0.58 0.64 0.69 0.74 0.74
0.42 0.46 0.39 0.34 0.33 0.33 0.37 0.45 0.46 0.27 0.28 0.39 0.40 0.39 0.42 0.39 0.40 0.52 0.56 0.60 0.72 0.74 0.80 0.83 0.79 0.68 0.58 0.53 0.51 0.42 0.47 0.47 0.48 0.50 0.52 0.52 0.47 0.45 0.50 0.55 0.60 0.61 0.62 0.62
0.33 0.35 0.37 0.36 0.34 0.30 0.48 0.48 0.38 0.42 0.48 0.46 0.42 0.43 0.45 0.45 0.48 0.53 0.66 0.73 0.76 0.75 0.81 0.83 0.78 0.75 0.74 0.68 0.57 0.47 0.42 0.50 0.51 0.48 0.49 0.51 0.50 0.45 0.49 0.52 0.55 0.56 0.54 0.56
0.35 0.38 0.39 0.40 0.40 0.51 0.55 0.52 0.58 0.60 0.57 0.59 0.57 0.52 0.49 0.50 0.54 0.55 0.61 0.69 0.72 0.76 0.82 0.84 0.83 0.83 0.82 0.78 0.72 0.59 0.50 0.48 0.51 0.48 0.45 0.50 0.51 0.46 0.51 0.52 0.51 0.48 0.48 0.47
0.49 0.46 0.42 0.45 0.54 0.62 0.63 0.68 0.72 0.65 0.64 0.63 0.59 0.63 0.61 0.57 0.60 0.62 0.69 0.70 0.71 0.77 0.81 0.83 0.84 0.84 0.81 0.84 0.79 0.79 0.66 0.57 0.48 0.48 0.47 0.50 0.49 0.43 0.50 0.54 0.53 0.47 0.44 0.43
0.56 0.60 0.49 0.50 0.52 0.66 0.63 0.67 0.74 0.70 0.71 0.78 0.75 0.67 0.62 0.64 0.67 0.68 0.68 0.68 0.75 0.81 0.84 0.81 0.80 0.83 0.85 0.89 0.87 0.87 0.75 0.66 0.54 0.49 0.48 0.50 0.51 0.44 0.46 0.48 0.47 0.45 0.46 0.45
0.56 0.57 0.49 0.49 0.63 0.60 0.60 0.63 0.66 0.74 0.73 0.74 0.66 0.64 0.66 0.65 0.66 0.66 0.65 0.69 0.75 0.80 0.84 0.84 0.82 0.80 0.85 0.90 0.92 0.94 0.90 0.82 0.67 0.57 0.50 0.45 0.49 0.48 0.43 0.45 0.46 0.46 0.50 0.46
Wind_Speed
29 28 31 31 30 27 25 23 20 18 15 19 19 23 23 24 24 25 24 21 19 17 15 15 14 14 14 15 15 15 16 14 14 12 12 12 11 14 15 16 12 7 4 5
28 33 30 28 29 29 27 24 23 20 19 18 20 23 24 25 25 23 22 19 17 16 15 14 14 13 13 13 13 13 13 11 11 12 12 10 8 11 15 17 14 10 2 3
33 28 28 29 28 27 25 24 21 20 19 17 18 24 22 18 18 18 16 15 15 16 15 13 13 12 11 12 11 11 11 9 10 10 10 9 9 9 11 14 15 12 4 2
31 30 28 30 29 27 25 22 22 20 18 18 17 20 19 18 14 14 15 14 15 13 13 13 12 10 9 10 9 9 8 7 8 10 10 10 11 11 10 10 12 11 9 4
33 30 32 28 30 27 24 21 20 18 19 20 20 16 17 15 13 11 11 13 11 11 12 11 11 9 8 8 7 7 6 5 6 8 10 12 12 12 10 8 9 10 9 7
34 31 29 30 26 25 23 21 19 16 17 19 19 18 16 12 6 10 9 6 8 10 11 11 10 9 8 7 6 5 5 4 4 6 9 12 13 13 11 8 8 8 9 8
32 35 30 25 27 26 22 19 17 16 16 16 17 13 14 15 11 11 9 8 8 8 9 9 10 8 7 6 5 4 4 3 3 4 7 10 13 16 14 10 10 10 9 9
29 33 34 28 30 26 25 23 18 16 14 14 8 11 8 8 8 10 9 8 6 8 8 8 9 7 6 5 4 3 3 2 2 2 5 8 11 13 13 12 12 12 11 12
30 32 31 32 29 30 24 26 23 21 18 14 11 10 11 9 10 6 5 6 5 7 8 8 7 7 6 5 4 3 2 1 1 1 3 5 8 9 11 11 11 11 12 12
25 26 29 32 27 31 29 22 22 19 20 18 15 12 8 7 5 3 4 5 5 7 8 7 7 7 6 5 3 3 2 1 1 0 1 3 6 7 8 10 11 10 10 12
34 27 30 31 34 31 29 27 21 19 18 14 12 10 5 7 5 6 3 4 7 8 7 7 7 7 7 5 3 3 2 2 1 2 1 2 4 6 7 9 11 11 12 11
40 26 28 36 32 31 32 31 27 18 20 17 15 8 4 8 8 5 4 5 7 8 7 7 7 7 8 6 4 3 3 3 2 3 2 3 4 5 6 8 10 12 13 14
38 32 29 31 30 33 33 30 28 25 20 19 15 15 12 8 7 7 6 7 8 9 8 7 8 9 9 8 5 3 4 3 4 4 3 4 5 6 7 8 10 12 14 14
39 34 36 33 34 30 32 32 30 27 24 21 20 16 10 11 9 8 7 8 9 10 10 9 8 10 10 9 7 4 4 4 4 5 5 5 6 7 9 10 11 12 13 14
42 41 38 36 28 31 31 32 33 32 28 25 21 20 18 15 12 11 9 9 10 13 13 11 9 10 11 10 8 6 5 5 5 6 6 6 7 8 10 11 11 12 13 14
40 40 36 37 35 32 33 33 32 32 30 28 25 20 16 15 14 12 11 10 11 14 15 13 10 10 12 11 10 8 7 7 6 6 7 7 8 9 10 10 11 11 12 13
39 37 39 35 35 36 34 35 34 31 30 28 27 23 18 14 16 13 12 11 12 14 17 15 12 12 12 12 11 10 9 8 7 7 7 8 9 10 11 11 11 12 12 12
42 39 33 34 33 38 35 33 31 32 29 28 27 24 22 20 17 16 16 14 13 15 17 17 14 13 13 13 12 11 11 10 9 8 8 8 10 11 11 12 12 12 12 12
43 39 33 31 33 29 35 29 33 31 30 29 27 25 23 20 20 18 17 17 15 16 17 18 17 15 14 14 14 12 12 11 11 10 9 9 10 12 12 13 12 12 11 11
37 40 35 32 30 37 33 32 26 30 30 28 27 25 23 23 19 17 18 18 16 15 17 19 18 16 17 16 16 15 13 12 12 12 11 10 11 12 13 13 12 11 11 10
38 38 39 33 31 30 33 25 26 30 26 28 28 26 24 24 20 15 15 20 19 17 17 20 19 18 17 18 17 17 15 14 13 13 13 12 11 12 13 13 12 11 11 10
41 40 36 36 31 31 33 28 30 23 16 23 25 26 25 23 21 19 12 16 18 19 18 20 20 19 19 19 18 17 17 16 15 14 14 14 13 12 13 13 12 12 11 11
40 40 36 36 31 28 27 28 29 22 21 19 20 20 23 22 21 21 18 18 18 20 20 20 19 20 21 21 19 18 17 19 17 16 16 15 15 14 14 14 13 13 12 11
31 38 34 34 30 26 27 28 27 25 23 21 21 20 21 21 20 21 18 17 18 21 21 21 21 21 22 22 22 21 20 19 20 19 18 17 16 16 15 14 14 14 14 13
29 20 33 33 29 27 27 30 22 27 25 20 20 18 18 20 20 19 19 18 19 21 21 21 21 22 23 24 25 23 22 21 20 21 21 19 18 18 17 17 16 16 15 15
29 25 25 31 26 29 26 26 26 24 26 21 22 21 20 20 19 18 18 18 19 22 22 21 21 21 22 24 27 27 25 23 22 22 22 23 22 21 20 20 19 19 17 19
Wind_Direction
225 228 226 227 233 239 248 258 262 263 267 260 267 278 282 284 283 283 280 269 269 265 264 270 282 292 299 311 316 323 330 332 339 338 341 345 359 8 11 7 358 340 272 237
223 231 229 231 233 238 244 252 258 260 266 268 275 282 286 286 283 284 277 262 264 260 259 265 277 285 294 308 314 323 329 333 338 346 347 351 355 6 17 19 21 24 51 191
225 227 227 228 230 231 236 246 252 259 268 264 279 282 281 284 286 283 274 266 262 255 253 259 271 276 287 304 310 323 329 336 345 350 357 359 354 353 356 11 21 23 37 146
226 227 223 227 228 230 238 239 249 259 265 266 273 289 293 291 288 286 267 261 262 251 249 257 261 265 281 300 308 321 328 331 349 358 357 350 349 344 346 359 9 20 41 89
226 223 224 224 228 228 238 241 247 248 258 269 270 276 288 289 278 294 279 257 252 246 246 249 250 255 276 291 302 316 324 329 348 5 8 7 3 2 355 2 10 25 47 61
228 222 225 227 224 226 233 235 246 253 258 262 266 269 278 285 283 297 294 273 250 250 244 245 245 247 268 276 293 305 318 323 342 4 11 15 18 8 8 16 28 43 47 57
221 225 221 220 219 221 222 223 233 240 245 259 261 257 278 283 286 293 294 275 261 247 240 234 225 235 253 256 280 291 299 313 331 6 13 20 22 26 41 56 61 50 55 58
216 217 216 214 219 215 215 220 229 227 244 260 212 266 286 266 283 290 285 280 251 240 231 216 217 233 235 239 262 273 285 288 298 359 12 24 28 38 48 59 61 57 64 74
214 222 215 215 216 218 213 224 229 249 265 271 250 264 264 266 276 274 269 267 246 229 204 204 218 221 222 223 246 250 265 275 280 337 8 27 32 42 47 52 55 58 65 86
221 221 222 209 214 220 220 219 223 234 246 256 249 258 261 237 257 302 266 248 220 197 199 212 216 208 207 215 231 230 243 246 201 95 23 35 36 44 50 51 51 65 73 85
222 219 211 206 211 213 215 226 223 238 230 241 249 265 223 227 257 295 239 223 202 199 200 205 202 203 196 202 205 209 212 180 159 156 76 66 56 57 65 61 59 72 75 98
216 220 220 214 215 220 220 221 220 226 228 242 251 249 228 242 254 247 226 212 202 203 200 197 195 196 191 193 184 184 186 169 160 143 114 92 82 78 81 77 76 74 77 96
208 216 217 210 216 216 222 219 222 227 235 234 230 242 244 227 248 239 241 215 209 203 198 195 195 195 192 192 189 175 179 171 163 148 126 108 104 95 99 96 91 89 85 97
208 215 216 216 216 211 218 222 218 223 225 231 234 242 208 226 230 225 237 215 214 208 200 198 198 196 194 192 192 182 173 171 165 157 143 122 118 111 112 111 103 99 96 97
207 216 217 222 216 214 218 220 221 221 225 227 230 235 241 241 234 233 219 215 223 209 202 200 200 197 196 193 192 187 173 161 160 158 151 142 131 126 126 120 115 106 102 102
206 214 216 220 222 217 218 219 222 225 226 229 231 236 235 232 233 226 211 221 222 210 203 201 201 197 195 193 192 188 180 167 160 156 153 153 144 139 138 135 127 122 115 110
204 209 213 221 218 223 224 218 221 225 227 226 227 227 230 229 223 226 223 223 221 211 203 202 200 197 195 194 192 189 185 177 169 161 155 158 155 148 144 141 138 131 126 122
206 209 211 217 218 219 224 223 224 225 226 224 229 225 227 233 234 229 232 220 223 212 208 206 204 202 199 195 193 190 188 184 178 171 161 158 162 159 153 149 144 140 136 132
207 207 212 214 217 222 221 224 220 221 225 221 224 224 229 230 230 231 226 214 218 214 212 209 207 206 202 199 196 193 192 190 188 183 174 167 165 163 160 157 154 150 147 144
209 210 214 214 217 218 218 217 222 218 227 217 221 221 223 222 226 224 217 217 213 215 213 209 206 205 204 202 199 198 197 195 194 189 182 176 172 171 169 167 165 164 162 160
206 208 212 215 217 221 213 208 211 215 228 219 219 219 218 218 219 223 229 217 215 217 211 205 203 203 201 200 200 203 202 200 196 194 189 184 180 179 179 177 176 177 178 176
208 208 210 212 211 217 210 204 207 214 225 206 209 212 214 214 218 222 221 205 212 211 206 200 203 205 201 200 201 204 205 202 198 195 193 191 186 185 184 184 184 183 183 181
213 212 211 213 213 216 210 214 204 205 201 199 203 205 206 211 217 216 218 220 217 211 207 205 206 205 203 206 207 209 207 204 202 199 196 195 193 192 189 188 188 187 186 186
216 209 211 210 203 200 201 204 205 206 207 210 212 209 211 213 213 212 212 217 214 207 206 210 211 211 212 213 215 215 210 208 207 206 203 200 199 199 197 196 196 196 195 196
199 213 202 203 206 198 200 204 203 205 206 205 207 205 204 208 207 209 212 217 212 208 209 212 215 217 219 218 218 217 214 212 212 212 210 208 208 207 207 209 208 209 209 209
207 205 200 200 197 203 201 203 207 208 210 208 209 208 205 204 207 211 215 212 212 214 214 215 218 220 221 220 219 218 215 214 214 214 214 215 216 216 217 218 219 221 224 221